Regional Weather Roundup
Issued by NWS

Home | Current Version | Previous Version | Text Only | Print | Product List | Glossary On
Versions: 1 2 3 4 5 6 7 8 9 10 11 12 13 14 15 16 17 18 19 20 21 22 23 24 25 26 27 28 29 30 31 32 33 34 35 36 37 38 39 40 41 42 43 44 45 46 47 48 49 50
000
ASUS43 KDMX 240907
RWRIA

WEATHER ROUNDUP FOR IOWA
NATIONAL WEATHER SERVICE DES MOINES IA
300 AM CST MON NOV 24 2014

NOTE: "FAIR" INDICATES FEW OR NO CLOUDS BELOW 12,000 FEET WITH NO
SIGNIFICANT WEATHER AND/OR OBSTRUCTIONS TO VISIBILITY.

* - THESE STATIONS ARE NOT NWS STATIONS...THUS NOT UNDER NWS
QUALITY CONTROL.  THEY ALSO DO NOT REPORT WEATHER SUCH
AS PRECIPITATION OR FOG.

IAZ001>003-012>014-020>022-031>034-043>046-241000-
   NORTHWEST IOWA

CITY           SKY/WX    TMP DP  RH WIND       PRES   REMARKS
CARROLL *      CLOUDY    28  21  74 NW29G35   29.46R WCI  13
CHEROKEE *     CLOUDY    27  19  74 NW18G25   29.49R WCI  13
DENISON *      CLOUDY    27  19  74 NW22G28   29.49R WCI  12
LE MARS *      CLOUDY    23  16  74 NW20G29   29.54R WCI   8
ORANGE CITY *  CLOUDY    23  16  74 NW20G29   29.50R WCI   8
SHELDON *      CLOUDY    23  18  80 NW23G30   29.47S WCI   7
SIOUX CITY     CLOUDY    27  17  66 NW28G37   29.54R WCI  11
SPENCER        CLOUDY    25  18  74 NW22G30   29.45R WCI  10
STORM LAKE *   CLOUDY    25  19  80 NW24G32   29.46R WCI   9
$$

IAZ055>058-069>071-079>083-090>094-241000-
   SOUTHWEST IOWA

CITY           SKY/WX    TMP DP  RH WIND       PRES   REMARKS
ATLANTIC *     CLOUDY    28  21  74 NW23      29.50R WCI  14
AUDUBON *      MOCLDY    28  19  69 NW9G23    29.48R WCI  20
CLARINDA *     CLOUDY    32  25  74 NW16G28   29.53S WCI  21
COUNCIL BLFS * CLOUDY    30  25  80 NW15      29.51R WCI  19
CRESTON *      CLOUDY    28  23  80 NW25G31   29.46R WCI  14
HARLAN  *      CLOUDY    28  21  74 NW20G31   29.54R WCI  15
LAMONI         CLOUDY    31  25  78 NW15      29.44R WCI  20
RED OAK *      CLOUDY    32  25  74 NW16G22   29.52R WCI  21
SHENANDOAH *   CLOUDY    32  23  69 NW15G22   29.54S WCI  22
$$

IAZ047>049-059>061-072>074-084-241000-
   CENTRAL IOWA

CITY           SKY/WX    TMP DP  RH WIND       PRES   REMARKS
AMES           CLOUDY    31  25  78 NW25      29.38R WCI  17
ANKENY *       CLOUDY    32  27  80 NW15G33   29.39R WCI  22
CHARITON *     CLOUDY    32  27  80 NW21G29   29.39S WCI  20
DES MOINES     CLOUDY    33  26  75 NW28G35   29.40R WCI  20
GRINNELL*      CLOUDY    32  28  86 W25G32    29.33R WCI  19
KNOXVILLE *    CLOUDY    32  28  86 NW22G32   29.36R WCI  19
MARSHALLTOWN   CLOUDY    31  27  85 NW31G37   29.33R WCI  16
PELLA *        CLOUDY    34  30  86 NW20G29   29.37S WCI  22
PERRY *        CLOUDY    30  25  80 NW15G25   29.43R WCI  19
$$

IAZ004>006-015-016-023>025-035-036-241000-
   NORTH CENTRAL IOWA

CITY           SKY/WX    TMP DP  RH WIND       PRES   REMARKS
ALGONA *       CLOUDY    27  23  86 NW22G31   29.40R WCI  12
CLARION *      CLOUDY    28  27  93 NW26G35   29.37R WCI  13
ESTHERVILLE    CLOUDY    23  20  88 NW23G35   29.42R WCI   7
FORT DODGE *   CLOUDY    28  19  69 NW16G24   29.41R WCI  17
MASON CITY     CLOUDY    27  25  92 NW24G35   29.33S WCI  12
FOREST CITY *  CLOUDY    28  27  93 NW20G30   29.34S WCI  15
IOWA FALLS *   CLOUDY    30  27  86 NW29G37   29.34S FOG     WCI  15
$$

IAZ007>011-017>019-026>030-037>042-050>054-066-241000-
   NORTHEAST IOWA

CITY           SKY/WX    TMP DP  RH WIND       PRES   REMARKS
CEDAR RAPIDS   CLOUDY    32  31  96 NW22G37   29.24R WCI  19
CHARLES CITY * LGT SNOW  30  28  93 NW21G31   29.28S VSB 3/4 WCI  17
CLINTON *      CLOUDY    41  37  87 NW17      29.18R
DECORAH *      LGT RAIN  34  32  93 NW14G25   29.20F WCI  24
DUBUQUE        CLOUDY    38  37  97 NW20G30   29.15R FOG     WCI  28
MONTICELLO *   LGT RAIN  36  36 100 NW21G32   29.19S WCI  24
OELWEIN *      LGT SNOW  32  32 100 NW22G29   29.24S WCI  19
WATERLOO       FLURRIES  30  28  92 NW23G32   29.28R WCI  17
$$

IAZ064-065-067-068-078-241000-
   EAST CENTRAL IOWA

CITY           SKY/WX    TMP DP  RH WIND       PRES   REMARKS
DAVENPORT      CLOUDY    38  35  89 NW18      29.18R WCI  28
IOWA CITY      CLOUDY    34  34 100 NW20G32   29.26R WCI  23
MT. PLEASANT * LGT SNOW  34  32  93 NW20G33   29.27S WCI  22
MUSCATINE *    CLOUDY    36  34  93 NW22G35   29.25R WCI  24
QUAD CITIES    CLOUDY    39  36  89 NW21G28   29.18R WCI  29
$$

IAZ062-063-075>077-085>089-095>099-241000-
   SOUTHEAST IOWA

CITY           SKY/WX    TMP DP  RH WIND       PRES   REMARKS
BURLINGTON     CLOUDY    36  35  96 NW24G32   29.25R FOG     WCI  24
FAIRFIELD *    SNOW      34  32  93 NW24G31   29.30S WCI  21
FORT MADISON * LGT RAIN  37  36  93 NW21G31   29.28R WCI  27
KEOKUK *       LGT SNOW  36  34  93 W20G26    29.29R WCI  25
OSKALOOSA *    CLOUDY    32  30  93 NW26G32   29.33S WCI  18
CENTERVILLE *    N/A     32  32 100 W18G24    29.39R WCI  20
OTTUMWA        FLURRIES  33  29  85 NW21G33   29.33S WCI  21
WASHINGTON *   LGT SNOW  34  34 100 NW24G31   29.27S WCI  21
$$

ABBREVIATIONS USED IN REMARKS
   TC - TEMPERATURES IN CELSIUS
  WCI - WIND CHILL INDEX
   HX - HEAT INDEX
  VSB - VISIBILITY
$$




USA.gov is the U.S. government's official web portal to all federal, state and local government web resources and services.